GW0719 Weather Reports


Display with metric or nautical units.
time (UTC)temp
F
wind
direction
speed
MPH
gust
MPH
rain 1hr
in
rain 24hr
in
rain mn
in
humidity
%
barometer
mb
20260510163716 65 203 0.0 0.0 0.00 0.00 0.00 10 1018.0
20260510163212 64 218 0.0 0.0 0.00 0.00 0.00 10 1018.0
20260510162711 65 217 0.0 0.0 0.00 0.00 0.00 10 1017.9
20260510162209 64 228 0.0 0.0 0.00 0.00 0.00 10 1018.3
20260510161705 63 192 0.0 0.0 0.00 0.00 0.00 10 1018.3
20260510161201 63 228 0.0 0.0 0.00 0.00 0.00 10 1018.0
20260510160658 63 230 0.0 0.0 0.00 0.00 0.00 10 1018.5
20260510160154 63 214 0.0 0.0 0.00 0.00 0.00 10 1018.3
20260510155650 62 200 0.0 0.0 0.00 0.00 0.00 10 1018.5
20260510155146 62 224 0.0 0.0 0.00 0.00 0.00 10 1018.5
20260510154641 61 237 0.0 1.0 0.00 0.00 0.00 10 1018.7
20260510154137 61 224 0.0 0.0 0.00 0.00 0.00 10 1018.8
20260510153638 61 209 0.0 1.0 0.00 0.00 0.00 10 1018.7
20260510153135 61 237 0.0 0.0 0.00 0.00 0.00 10 1018.9
20260510152631 61 246 0.0 0.0 0.00 0.00 0.00 10 1018.7
20260510152127 60 235 0.0 1.0 0.00 0.00 0.00 10 1018.7
20260510151624 61 231 0.0 1.0 0.00 0.00 0.00 10 1018.8
20260510151122 59 256 0.0 1.0 0.00 0.00 0.00 10 1018.7
20260510150622 59 222 0.0 1.0 0.00 0.00 0.00 10 1018.8
20260510150118 59 226 0.0 0.0 0.00 0.00 0.00 10 1018.8
20260510145615 59 241 0.0 0.0 0.00 0.00 0.00 10 1018.8
20260510145111 58 227 0.0 0.0 0.00 0.00 0.00 10 1018.9
20260510144607 57 240 0.0 1.0 0.00 0.00 0.00 10 1018.8
20260510144104 56 245 0.0 1.0 0.00 0.00 0.00 10 1019.0
20260510143559 56 251 0.0 1.0 0.00 0.00 0.00 10 1018.9
20260510143056 56 232 0.0 1.0 0.00 0.00 0.00 10 1018.9
20260510142553 55 261 0.0 0.0 0.00 0.00 0.00 10 1019.0
20260510142049 55 258 0.0 0.0 0.00 0.00 0.00 10 1019.1
20260510141546 54 245 0.0 1.0 0.00 0.00 0.00 10 1018.9
20260510141044 53 262 0.0 1.0 0.00 0.00 0.00 10 1019.1
20260510140540 53 253 0.0 0.0 0.00 0.00 0.00 10 1018.8
20260510140039 52 278 0.0 0.0 0.00 0.00 0.00 10 1018.9
20260510135535 52 275 0.0 1.0 0.00 0.00 0.00 10 1019.1
20260510135032 51 240 0.0 0.0 0.00 0.00 0.00 10 1019.2
20260510134529 50 25 0.0 0.0 0.00 0.00 0.00 10 1019.2
20260510134026 46 67 0.0 0.0 0.00 0.00 0.00 10 1019.2
20260510133521 44 55 0.0 0.0 0.00 0.00 0.00 10 1019.2
20260510133018 43 55 0.0 0.0 0.00 0.00 0.00 10 1019.5
20260510132515 41 45 0.0 0.0 0.00 0.00 0.00 10 1019.2
20260510132012 41 47 0.0 0.0 0.00 0.00 0.00 10 1019.1
20260510131509 40 46 0.0 0.0 0.00 0.00 0.00 10 1019.5
20260510131006 39 54 0.0 0.0 0.00 0.00 0.00 10 1019.4
20260510130502 38 39 0.0 0.0 0.00 0.00 0.00 10 1019.4
20260510130000 38 43 0.0 0.0 0.00 0.00 0.00 10 1019.5
20260510125456 37 47 0.0 0.0 0.00 0.00 0.00 10 1019.2
20260510124953 37 48 0.0 0.0 0.00 0.00 0.00 10 1019.4
20260510124449 36 41 0.0 0.0 0.00 0.00 0.00 10 1019.5
20260510123946 35 326 0.0 0.0 0.00 0.00 0.00 10 1019.4
20260510123442 35 341 0.0 0.0 0.00 0.00 0.00 10 1019.4
20260510122938 35 334 0.0 0.0 0.00 0.00 0.00 10 1019.6
20260510122433 36 353 0.0 0.0 0.00 0.00 0.00 10 1019.4
20260510121929 34 47 0.0 0.0 0.00 0.00 0.00 10 1019.6
20260510121427 35 47 0.0 0.0 0.00 0.00 0.00 10 1019.6
20260510120925 35 344 0.0 0.0 0.00 0.00 0.00 10 1019.7
20260510120422 35 58 0.0 0.0 0.00 0.00 0.00 10 1019.6
20260510115917 35 44 0.0 0.0 0.00 0.00 0.00 10 1019.6
20260510115414 35 39 0.0 0.0 0.00 0.00 0.00 10 1019.6
20260510114910 35 15 0.0 0.0 0.00 0.00 0.00 10 1019.7
20260510114408 35 12 0.0 0.0 0.00 0.00 0.00 10 1019.7
20260510113903 35 7 0.0 0.0 0.00 0.00 0.00 10 1019.8
20260510113359 35 32 0.0 0.0 0.00 0.00 0.00 10 1019.9
20260510112856 34 20 0.0 0.0 0.00 0.00 0.00 10 1019.6
20260510112353 34 14 0.0 0.0 0.00 0.00 0.00 10 1019.9
20260510111849 33 17 0.0 0.0 0.00 0.00 0.00 10 1019.8
20260510111345 34 352 0.0 0.0 0.00 0.00 0.00 10 1019.8
20260510110840 34 7 0.0 0.0 0.00 0.00 0.00 10 1019.8
20260510110338 34 17 0.0 0.0 0.00 0.00 0.00 10 1020.0
20260510105834 34 32 0.0 0.0 0.00 0.00 0.00 10 1019.9
20260510105333 34 37 0.0 0.0 0.00 0.00 0.00 10 1019.9
20260510104830 34 17 0.0 0.0 0.00 0.00 0.00 10 1020.0
20260510104327 35 2 0.0 0.0 0.00 0.00 0.00 10 1020.0
20260510103823 35 36 0.0 0.0 0.00 0.00 0.00 10 1020.0
20260510103320 34 30 0.0 0.0 0.00 0.00 0.00 10 1019.9
20260510102815 34 25 0.0 0.0 0.00 0.00 0.00 10 1020.1
20260510102312 34 29 0.0 0.0 0.00 0.00 0.00 10 1020.0
20260510101809 34 23 0.0 0.0 0.00 0.00 0.00 10 1019.9
20260510101307 34 26 0.0 0.0 0.00 0.00 0.00 10 1020.0
20260510100803 34 35 0.0 0.0 0.00 0.00 0.00 10 1019.9
20260510100301 35 32 0.0 0.0 0.00 0.00 0.00 10 1020.0
20260510095756 35 359 0.0 0.0 0.00 0.00 0.00 10 1020.1
20260510095252 35 14 0.0 0.0 0.00 0.00 0.00 10 1019.9
20260510094750 34 40 0.0 0.0 0.00 0.00 0.00 10 1020.1
20260510094246 34 42 0.0 0.0 0.00 0.00 0.00 10 1020.1
20260510093742 35 13 0.0 0.0 0.00 0.00 0.00 10 1020.2
20260510093239 34 6 0.0 0.0 0.00 0.00 0.00 10 1020.1
20260510092735 35 39 0.0 0.0 0.00 0.00 0.00 10 1020.2
20260510092231 35 43 0.0 0.0 0.00 0.00 0.00 10 1019.9
20260510091727 35 31 0.0 0.0 0.00 0.00 0.00 10 1020.1
20260510091224 35 38 0.0 0.0 0.00 0.00 0.00 10 1020.2
20260510090720 35 52 0.0 0.0 0.00 0.00 0.00 10 1020.1
20260510090218 36 49 0.0 0.0 0.00 0.00 0.00 10 1020.2
20260510085712 35 44 0.0 0.0 0.00 0.00 0.00 10 1020.5
20260510085207 35 46 0.0 0.0 0.00 0.00 0.00 10 1020.6
20260510084703 35 19 0.0 0.0 0.00 0.00 0.00 10 1020.5
20260510084155 36 36 0.0 0.0 0.00 0.00 0.00 10 1020.6
20260510083652 36 45 0.0 0.0 0.00 0.00 0.00 10 1020.3
20260510083149 36 36 0.0 0.0 0.00 0.00 0.00 10 1020.3
20260510082645 36 51 0.0 0.0 0.00 0.00 0.00 10 1020.5
20260510082141 36 52 0.0 0.0 0.00 0.00 0.00 10 1020.6
20260510081636 37 51 0.0 0.0 0.00 0.00 0.00 10 1020.6
20260510081132 37 51 0.0 0.0 0.00 0.00 0.00 10 1020.7
20260510080631 37 38 0.0 0.0 0.00 0.00 0.00 10 1020.7
20260510080128 38 36 0.0 0.0 0.00 0.00 0.00 10 1020.6
20260510075625 38 42 0.0 0.0 0.00 0.00 0.00 10 1020.5
20260510075122 38 47 0.0 0.0 0.00 0.00 0.00 10 1020.6
20260510074620 39 50 0.0 0.0 0.00 0.00 0.00 10 1020.6
20260510074115 40 48 0.0 0.0 0.00 0.00 0.00 10 1020.7
20260510073611 41 26 0.0 0.0 0.00 0.00 0.00 10 1020.6
20260510073108 41 32 0.0 0.0 0.00 0.00 0.00 10 1020.5
20260510072605 41 25 0.0 0.0 0.00 0.00 0.00 10 1020.8
20260510072101 41 38 0.0 0.0 0.00 0.00 0.00 10 1020.7
20260510071557 41 48 0.0 0.0 0.00 0.00 0.00 10 1020.7
20260510071055 41 47 0.0 0.0 0.00 0.00 0.00 10 1020.8
20260510070552 41 29 0.0 0.0 0.00 0.00 0.00 10 1020.6
20260510070049 41 32 0.0 0.0 0.00 0.00 0.00 10 1020.7
20260510065545 41 23 0.0 0.0 0.00 0.00 0.00 10 1020.6
20260510065041 41 25 0.0 0.0 0.00 0.00 0.00 10 1020.9
20260510064538 42 48 0.0 0.0 0.00 0.00 0.00 10 1020.6
20260510064034 42 48 0.0 0.0 0.00 0.00 0.00 10 1020.7
20260510063531 42 52 0.0 0.0 0.00 0.00 0.00 10 1020.7
20260510063029 43 50 0.0 0.0 0.00 0.00 0.00 10 1020.7
20260510062524 42 43 0.0 0.0 0.00 0.00 0.00 10 1020.8
20260510062019 42 28 0.0 0.0 0.00 0.00 0.00 10 1020.9
20260510061516 43 47 0.0 0.0 0.00 0.00 0.00 10 1020.8
20260510061013 43 54 0.0 0.0 0.00 0.00 0.00 10 1021.0
20260510060510 43 48 0.0 0.0 0.00 0.00 0.00 10 1020.8
20260510060006 43 35 0.0 0.0 0.00 0.00 0.00 10 1020.7
20260510055502 44 46 0.0 0.0 0.00 0.00 0.00 10 1020.6
20260510055000 44 60 0.0 0.0 0.00 0.00 0.00 10 1020.7
20260510054455 44 67 0.0 0.0 0.00 0.00 0.00 10 1020.7
20260510053950 46 43 0.0 0.0 0.00 0.00 0.00 10 1020.7
20260510053446 47 32 0.0 0.0 0.00 0.00 0.00 10 1020.5
20260510052942 47 51 0.0 0.0 0.00 0.00 0.00 10 1020.9
20260510052438 48 50 0.0 0.0 0.00 0.00 0.00 10 1020.5
20260510051935 49 23 0.0 0.0 0.00 0.00 0.00 10 1020.6
20260510051431 49 58 0.0 0.0 0.00 0.00 0.00 10 1020.5
20260510050927 49 117 0.0 0.0 0.00 0.00 0.00 10 1020.5
20260510050424 49 62 0.0 0.0 0.00 0.00 0.00 10 1020.5
20260510045922 49 52 0.0 0.0 0.00 0.00 0.00 10 1020.5
20260510045419 49 50 0.0 0.0 0.00 0.00 0.00 10 1020.3
20260510044915 48 58 0.0 0.0 0.00 0.00 0.00 10 1020.6
20260510044412 47 53 0.0 0.0 0.00 0.00 0.00 10 1020.3
20260510043909 47 62 0.0 0.0 0.00 0.00 0.00 10 1020.3
20260510043405 48 66 0.0 0.0 0.00 0.00 0.00 10 1020.0
20260510042903 49 168 0.0 0.0 0.00 0.00 0.00 10 1020.1
20260510042359 49 209 0.0 0.0 0.00 0.00 0.00 10 1020.3
20260510041855 50 204 0.0 0.0 0.00 0.00 0.00 10 1020.0
20260510041352 51 203 0.0 0.0 0.00 0.00 0.00 10 1020.1
20260510040849 50 209 0.0 0.0 0.00 0.00 0.00 10 1020.1
20260510040346 50 175 0.0 0.0 0.00 0.00 0.00 10 1020.1
20260510035842 49 139 0.0 0.0 0.00 0.00 0.00 10 1020.0
20260510035338 50 130 0.0 0.0 0.00 0.00 0.00 10 1019.7
20260510034833 50 162 0.0 0.0 0.00 0.00 0.00 10 1019.9
20260510034332 50 185 0.0 0.0 0.00 0.00 0.00 10 1019.7
20260510033828 49 138 0.0 0.0 0.00 0.00 0.00 10 1019.7
20260510033325 48 99 0.0 0.0 0.00 0.00 0.00 10 1019.8
20260510032821 48 115 0.0 0.0 0.00 0.00 0.00 10 1019.8
20260510032318 48 111 0.0 0.0 0.00 0.00 0.00 10 1019.6
20260510031814 50 119 0.0 0.0 0.00 0.00 0.00 10 1019.7
20260510031309 51 165 0.0 0.0 0.00 0.00 0.00 10 1019.6
20260510030803 52 175 0.0 0.0 0.00 0.00 0.00 10 1019.4
20260510030300 53 170 0.0 0.0 0.00 0.00 0.00 10 1019.6
20260510025758 53 171 0.0 0.0 0.00 0.00 0.00 10 1019.4
20260510025255 53 167 0.0 0.0 0.00 0.00 0.00 10 1019.2
20260510024751 54 127 0.0 0.0 0.00 0.00 0.00 10 1019.0
20260510024248 55 113 0.0 0.0 0.00 0.00 0.00 10 1019.2
20260510023744 55 95 0.0 0.0 0.00 0.00 0.00 10 1019.2
20260510023241 56 115 0.0 0.0 0.00 0.00 0.00 10 1019.2
20260510022738 57 118 0.0 0.0 0.00 0.00 0.00 10 1019.4
20260510022238 57 110 0.0 0.0 0.00 0.00 0.00 10 1019.2
20260510021732 58 120 0.0 0.0 0.00 0.00 0.00 10 1019.2
20260510021230 58 100 0.0 0.0 0.00 0.00 0.00 10 1019.2
20260510020731 59 95 0.0 0.0 0.00 0.00 0.00 10 1019.1
20260510020226 59 122 0.0 0.0 0.00 0.00 0.00 10 1019.1
20260510015722 59 123 0.0 0.0 0.00 0.00 0.00 10 1019.0
20260510015218 60 127 0.0 0.0 0.00 0.00 0.00 10 1019.0
20260510014713 61 131 0.0 0.0 0.00 0.00 0.00 10 1018.9
20260510014211 62 126 0.0 0.0 0.00 0.00 0.00 10 1018.9
20260510013706 62 124 0.0 0.0 0.00 0.00 0.00 10 1019.1
20260510013202 62 104 0.0 0.0 0.00 0.00 0.00 10 1019.2
20260510012702 62 105 0.0 0.0 0.00 0.00 0.00 10 1019.0
20260510012157 62 117 0.0 0.0 0.00 0.00 0.00 10 1019.0
20260510011652 62 95 0.0 0.0 0.00 0.00 0.00 10 1019.2
20260510011148 62 87 0.0 0.0 0.00 0.00 0.00 10 1019.1
20260510010644 62 78 0.0 0.0 0.00 0.00 0.00 10 1019.4
20260510010142 62 95 0.0 0.0 0.00 0.00 0.00 10 1019.4
20260510005637 63 78 0.0 0.0 0.00 0.00 0.00 10 1019.0
20260510005134 64 95 0.0 0.0 0.00 0.00 0.00 10 1019.2
20260510004633 62 62 0.0 0.0 0.00 0.00 0.00 10 1019.0
20260510004131 62 65 0.0 0.0 0.00 0.00 0.00 10 1019.1
20260510003628 62 57 0.0 0.0 0.00 0.00 0.00 10 1019.5
20260510003123 62 40 0.0 0.0 0.00 0.00 0.00 10 1019.4
20260510002618 63 23 0.0 0.0 0.00 0.00 0.00 10 1019.4
20260510002115 62 39 0.0 0.0 0.00 0.00 0.00 10 1019.2
20260510001612 62 45 0.0 0.0 0.00 0.00 0.00 10 1019.4
20260510001111 62 13 0.0 0.0 0.00 0.00 0.00 10 1019.2
20260510000611 63 24 0.0 0.0 0.00 0.00 0.00 10 1019.5
20260510000108 63 27 0.0 0.0 0.00 0.00 0.00 10 1019.1
20260509235604 63 343 0.0 0.0 0.00 0.00 0.00 10 1019.2
20260509235102 63 321 0.0 1.0 0.00 0.00 0.00 10 1019.0
20260509234557 63 330 0.0 1.0 0.00 0.00 0.00 10 1019.0
20260509234055 64 319 0.0 1.0 0.00 0.00 0.00 10 1019.0
20260509233553 64 39 0.0 0.0 0.00 0.00 0.00 10 1018.9
20260509233050 63 20 0.0 0.0 0.00 0.00 0.00 10 1019.1
20260509232546 64 51 0.0 0.0 0.00 0.00 0.00 10 1018.9
20260509232043 64 46 0.0 0.0 0.00 0.00 0.00 10 1019.1
20260509231539 63 50 0.0 0.0 0.00 0.00 0.00 10 1018.9
20260509231038 63 20 0.0 0.0 0.00 0.00 0.00 10 1019.1
20260509230534 63 25 0.0 0.0 0.00 0.00 0.00 10 1019.4
20260509230031 64 319 0.0 0.0 0.00 0.00 0.00 10 1019.1
20260509225526 64 21 0.0 0.0 0.00 0.00 0.00 10 1019.1
20260509225022 64 315 0.0 0.0 0.00 0.00 0.00 10 1019.0
20260509224518 64 63 0.0 0.0 0.00 0.00 0.00 10 1019.1
20260509224015 64 277 0.0 1.0 0.00 0.00 0.00 10 1019.2
20260509223512 64 230 0.0 0.0 0.00 0.00 0.00 10 1019.2
20260509223010 64 256 0.0 3.0 0.00 0.00 0.00 10 1019.2
20260509222505 64 276 0.0 1.0 0.00 0.00 0.00 10 1019.5
20260509222001 64 225 0.0 0.0 0.00 0.00 0.00 10 1019.0
20260509221457 63 346 0.0 0.0 0.00 0.00 0.00 10 1019.4
20260509220953 63 50 0.0 0.0 0.00 0.00 0.00 10 1019.4
20260509220449 63 303 0.0 1.0 0.00 0.00 0.00 10 1019.4
20260509215945 64 316 0.0 2.0 0.00 0.00 0.00 10 1019.5
20260509215441 64 57 0.0 0.0 0.00 0.00 0.00 10 1019.5
20260509214939 63 56 0.0 0.0 0.00 0.00 0.00 10 1019.4
20260509214436 63 326 0.0 0.0 0.00 0.00 0.00 10 1019.5
20260509213932 62 5 0.0 0.0 0.00 0.00 0.00 10 1019.7
20260509213428 62 316 0.0 0.0 0.00 0.00 0.00 10 1019.7
20260509212926 62 356 0.0 0.0 0.00 0.00 0.00 10 1019.4
20260509212423 62 330 0.0 1.0 0.00 0.00 0.00 10 1019.6
20260509211919 63 296 0.0 1.0 0.00 0.00 0.00 10 1019.8
20260509211415 63 260 0.0 0.0 0.00 0.00 0.00 10 1019.5
20260509210911 64 322 0.0 0.0 0.00 0.00 0.00 10 1019.5
20260509210409 64 34 0.0 0.0 0.00 0.00 0.00 10 1019.7
20260509205904 63 43 0.0 0.0 0.00 0.00 0.00 10 1019.6
20260509205403 64 42 0.0 0.0 0.00 0.00 0.00 10 1019.7
20260509204900 64 52 0.0 0.0 0.00 0.00 0.00 10 1019.7
20260509204356 64 54 0.0 0.0 0.00 0.00 0.00 10 1019.5
20260509203853 64 76 0.0 0.0 0.00 0.00 0.00 10 1019.4
20260509203349 62 345 0.0 0.0 0.00 0.00 0.00 10 1019.5
20260509202847 63 312 0.0 0.0 0.00 0.00 0.00 10 1019.6
20260509202342 64 52 0.0 0.0 0.00 0.00 0.00 10 1019.4
20260509201837 63 304 0.0 0.0 0.00 0.00 0.00 10 1019.1
20260509201333 63 33 0.0 0.0 0.00 0.00 0.00 10 1019.7
20260509200830 62 347 0.0 0.0 0.00 0.00 0.00 10 1019.2
20260509200326 62 324 0.0 0.0 0.00 0.00 0.00 10 1019.6
20260509195823 64 306 0.0 1.0 0.00 0.00 0.00 10 1019.6
20260509195322 63 41 0.0 0.0 0.00 0.00 0.00 10 1019.5
20260509194822 64 248 0.0 1.0 0.00 0.00 0.00 10 1019.6
20260509194319 64 239 0.0 0.0 0.00 0.00 0.00 10 1019.5
20260509193815 63 261 0.0 0.0 0.00 0.00 0.00 10 1019.5
20260509193315 63 67 0.0 0.0 0.00 0.00 0.00 10 1019.8
20260509192812 63 89 0.0 0.0 0.00 0.00 0.00 10 1019.4
20260509192308 62 65 0.0 0.0 0.00 0.00 0.00 10 1019.5
20260509191803 62 54 0.0 0.0 0.00 0.00 0.00 10 1019.7
20260509191259 62 51 0.0 0.0 0.00 0.00 0.00 10 1019.5
20260509190755 62 43 0.0 0.0 0.00 0.00 0.00 10 1019.7
20260509190253 63 47 0.0 0.0 0.00 0.00 0.00 10 1019.6
20260509185750 62 77 0.0 0.0 0.00 0.00 0.00 10 1019.7
20260509185246 61 68 0.0 0.0 0.00 0.00 0.00 10 1019.4
20260509184743 62 95 0.0 0.0 0.00 0.00 0.00 10 1019.4
20260509184241 61 152 0.0 1.0 0.00 0.00 0.00 10 1019.5
20260509183737 63 104 0.0 0.0 0.00 0.00 0.00 10 1019.6
20260509183232 62 49 0.0 0.0 0.00 0.00 0.00 10 1019.6
20260509182728 62 50 0.0 0.0 0.00 0.00 0.00 10 1019.5
20260509182226 61 49 0.0 0.0 0.00 0.00 0.00 10 1019.4
20260509181723 62 44 0.0 0.0 0.00 0.00 0.00 10 1019.5
20260509181220 62 52 0.0 0.0 0.00 0.00 0.00 10 1019.6
20260509180717 61 57 0.0 0.0 0.00 0.00 0.00 10 1019.6
20260509180213 61 54 0.0 0.0 0.00 0.00 0.00 10 1019.5
20260509175710 62 52 0.0 0.0 0.00 0.00 0.00 10 1019.7
20260509175207 63 355 0.0 0.0 0.00 0.00 0.00 10 1019.2
20260509174702 63 258 0.0 0.0 0.00 0.00 0.00 10 1019.4
20260509174157 63 290 0.0 0.0 0.00 0.00 0.00 10 1019.2
20260509173653 62 51 0.0 0.0 0.00 0.00 0.00 10 1019.2
20260509173149 62 52 0.0 0.0 0.00 0.00 0.00 10 1019.4
20260509172646 61 325 0.0 0.0 0.00 0.00 0.00 10 1019.5
20260509172142 61 350 0.0 0.0 0.00 0.00 0.00 10 1019.2
20260509171638 61 5 0.0 0.0 0.00 0.00 0.00 10 1018.9
20260509171134 61 38 0.0 0.0 0.00 0.00 0.00 10 1019.4
20260509170631 61 358 0.0 0.0 0.00 0.00 0.00 10 1019.1
20260509170127 62 74 0.0 0.0 0.00 0.00 0.00 10 1019.2
20260509165625 61 68 0.0 0.0 0.00 0.00 0.00 10 1019.2
20260509165121 60 57 0.0 0.0 0.00 0.00 0.00 10 1019.4
20260509164617 60 54 0.0 0.0 0.00 0.00 0.00 10 1019.4
20260509164113 60 48 0.0 0.0 0.00 0.00 0.00 10 1019.1